FW7128 Weather Reports


Display with metric or nautical units.
time (UTC)temp
F
wind
direction
speed
MPH
gust
MPH
rain 1hr
in
rain 24hr
in
rain mn
in
humidity
%
barometer
mb
20210619054405 79 97 12.0 19.0 0.00 0.00 0.00 74 1012.6
20210619053857 80 72 6.0 13.0 0.00 0.00 0.00 73 1012.8
20210619053258 80 71 3.0 12.0 0.00 0.00 0.00 73 1012.7
20210619052745 80 100 8.0 18.0 0.00 0.00 0.00 72 1012.6
20210619052242 80 79 14.0 14.0 0.00 0.00 0.00 72 1012.7
20210619051738 80 106 5.0 12.0 0.00 0.00 0.00 72 1012.7
20210619051236 80 98 7.0 20.0 0.00 0.00 0.00 72 1012.7
20210619050729 81 33 5.0 10.0 0.00 0.00 0.00 72 1012.7
20210619050225 81 118 8.0 14.0 0.00 0.00 0.00 71 1012.6
20210619045721 81 34 8.0 11.0 0.00 0.00 0.00 71 1012.7
20210619045217 81 88 15.0 20.0 0.00 0.00 0.00 70 1012.8
20210619044710 81 100 13.0 18.0 0.00 0.00 0.00 70 1012.7
20210619044159 82 116 0.0 13.0 0.00 0.00 0.00 70 1012.7
20210619043649 82 142 7.0 11.0 0.00 0.00 0.00 70 1012.4
20210619043148 82 72 5.0 11.0 0.00 0.00 0.00 70 1012.7
20210619042644 82 104 10.0 13.0 0.00 0.00 0.00 69 1012.5
20210619042142 82 101 4.0 11.0 0.00 0.00 0.00 69 1012.5
20210619041641 82 82 7.0 11.0 0.00 0.00 0.00 68 1012.3
20210619041138 82 90 10.0 14.0 0.00 0.00 0.00 68 1012.3
20210619040633 83 78 6.0 13.0 0.00 0.00 0.00 68 1012.7
20210619040130 83 97 10.0 13.0 0.00 0.00 0.00 67 1012.5
20210619035626 83 72 9.0 15.0 0.00 0.00 0.00 67 1012.4
20210619035123 83 93 7.0 13.0 0.00 0.00 0.00 66 1012.2
20210619034622 83 77 7.0 13.0 0.00 0.00 0.00 66 1012.3
20210619034117 84 119 5.0 13.0 0.00 0.00 0.00 65 1012.4
20210619033616 84 105 3.0 11.0 0.00 0.00 0.00 64 1012.1
20210619033112 84 83 6.0 16.0 0.00 0.00 0.00 64 1012.0
20210619032607 84 81 2.0 16.0 0.00 0.00 0.00 63 1012.2
20210619032102 84 103 5.0 14.0 0.00 0.00 0.00 63 1012.0
20210619031557 85 67 18.0 18.0 0.00 0.00 0.00 62 1012.0
20210619031052 85 88 10.0 13.0 0.00 0.00 0.00 62 1011.9
20210619030549 85 76 5.0 10.0 0.00 0.00 0.00 61 1011.7
20210619030042 85 66 9.0 13.0 0.00 0.00 0.00 61 1011.6
20210619025540 85 104 7.0 18.0 0.00 0.00 0.00 60 1011.5
20210619025035 86 86 9.0 13.0 0.00 0.00 0.00 60 1011.6
20210619024525 86 90 7.0 18.0 0.00 0.00 0.00 59 1011.6
20210619024021 86 46 11.0 14.0 0.00 0.00 0.00 59 1011.5
20210619023519 86 105 6.0 16.0 0.00 0.00 0.00 58 1011.4
20210619023011 86 62 7.0 20.0 0.00 0.00 0.00 58 1011.3
20210619022510 86 90 3.0 12.0 0.00 0.00 0.00 57 1011.4
20210619022009 87 69 7.0 18.0 0.00 0.00 0.00 57 1011.3
20210619021507 87 52 8.0 15.0 0.00 0.00 0.00 56 1011.1
20210619020818 87 66 7.0 19.0 0.00 0.00 0.00 55 1011.2
20210619020308 87 95 4.0 16.0 0.00 0.00 0.00 54 1011.1
20210619015808 87 74 9.0 22.0 0.00 0.00 0.00 54 1011.2
20210619015305 88 100 13.0 19.0 0.00 0.00 0.00 53 1011.1
20210619014759 88 94 14.0 19.0 0.00 0.00 0.00 53 1011.3
20210619014256 88 144 4.0 15.0 0.00 0.00 0.00 53 1011.0
20210619013751 88 101 9.0 13.0 0.00 0.00 0.00 53 1011.2
20210619013249 89 48 8.0 22.0 0.00 0.00 0.00 52 1011.1
20210619012744 89 90 9.0 16.0 0.00 0.00 0.00 51 1011.0
20210619012237 89 73 13.0 13.0 0.00 0.00 0.00 51 1011.2
20210619011736 90 67 15.0 19.0 0.00 0.00 0.00 50 1011.3
20210619011227 90 73 6.0 19.0 0.00 0.00 0.00 50 1010.8
20210619010714 90 125 7.0 20.0 0.00 0.00 0.00 49 1010.9
20210619010211 90 92 12.0 17.0 0.00 0.00 0.00 49 1010.8
20210619005710 91 107 8.0 12.0 0.00 0.00 0.00 49 1010.8
20210619005203 91 99 6.0 20.0 0.00 0.00 0.00 49 1010.8
20210619004659 91 105 7.0 15.0 0.00 0.00 0.00 48 1010.8
20210619004157 91 98 9.0 18.0 0.00 0.00 0.00 48 1010.7
20210619003651 92 75 8.0 24.0 0.00 0.00 0.00 47 1010.7
20210619003148 92 82 10.0 25.0 0.00 0.00 0.00 47 1010.7
20210619002647 92 107 7.0 21.0 0.00 0.00 0.00 47 1010.6
20210619002145 92 90 6.0 25.0 0.00 0.00 0.00 46 1010.6
20210619001640 92 80 8.0 22.0 0.00 0.00 0.00 45 1010.6
20210619001139 93 88 12.0 15.0 0.00 0.00 0.00 45 1010.7
20210619000638 93 106 24.0 24.0 0.00 0.00 0.00 44 1010.7
20210619000135 93 67 8.0 21.0 0.00 0.00 0.00 44 1010.4
20210618235630 94 180 0.0 10.0 0.00 0.00 0.00 43 1010.7
20210618235117 94 41 0.0 20.0 0.00 0.00 0.00 43 1010.5
20210618234605 94 94 10.0 16.0 0.00 0.00 0.00 43 1010.6
20210618234103 93 79 7.0 18.0 0.00 0.00 0.00 42 1010.7
20210618233601 94 82 9.0 17.0 0.00 0.00 0.00 43 1010.8
20210618233058 93 132 5.0 21.0 0.00 0.00 0.00 43 1010.7
20210618232554 95 81 11.0 15.0 0.00 0.00 0.00 41 1010.7
20210618232050 94 108 9.0 19.0 0.00 0.00 0.00 41 1010.7
20210618231543 95 78 10.0 11.0 0.00 0.00 0.00 41 1010.6
20210618231042 94 174 6.0 18.0 0.00 0.00 0.00 41 1010.6
20210618230533 94 86 9.0 18.0 0.00 0.00 0.00 41 1010.5
20210618230029 95 100 12.0 22.0 0.00 0.00 0.00 42 1010.4
20210618225526 95 45 9.0 19.0 0.00 0.00 0.00 41 1010.6
20210618225025 94 148 8.0 17.0 0.00 0.00 0.00 41 1010.7
20210618224523 95 61 10.0 19.0 0.00 0.00 0.00 40 1010.9
20210618224019 95 78 5.0 14.0 0.00 0.00 0.00 39 1010.8
20210618223518 95 90 6.0 19.0 0.00 0.00 0.00 40 1010.7
20210618223013 93 100 10.0 13.0 0.00 0.00 0.00 41 1011.0
20210618222509 94 121 5.0 20.0 0.00 0.00 0.00 40 1010.8
20210618222005 95 157 10.0 15.0 0.00 0.00 0.00 38 1010.8
20210618221501 95 90 11.0 17.0 0.00 0.00 0.00 39 1010.9
20210618220950 95 161 5.0 30.0 0.00 0.00 0.00 39 1011.1
20210618220444 96 114 3.0 14.0 0.00 0.00 0.00 38 1011.1
20210618215944 96 133 11.0 12.0 0.00 0.00 0.00 38 1010.9
20210618215443 94 90 6.0 22.0 0.00 0.00 0.00 38 1011.1
20210618214917 96 72 11.0 13.0 0.00 0.00 0.00 37 1011.1
20210618214416 97 81 7.0 11.0 0.00 0.00 0.00 38 1011.4
20210618213910 96 140 9.0 12.0 0.00 0.00 0.00 37 1011.2
20210618213359 96 90 0.0 9.0 0.00 0.00 0.00 37 1011.1
20210618212830 95 75 7.0 22.0 0.00 0.00 0.00 36 1011.3
20210618212230 95 76 14.0 22.0 0.00 0.00 0.00 37 1011.4
20210618211723 96 100 10.0 20.0 0.00 0.00 0.00 36 1011.2
20210618211222 96 201 5.0 9.0 0.00 0.00 0.00 37 1011.5
20210618210718 95 130 9.0 15.0 0.00 0.00 0.00 39 1011.3
20210618210208 95 86 19.0 21.0 0.00 0.00 0.00 38 1011.4
20210618205707 95 90 9.0 16.0 0.00 0.00 0.00 37 1011.6
20210618205200 96 161 10.0 17.0 0.00 0.00 0.00 38 1011.4
20210618204659 96 158 7.0 19.0 0.00 0.00 0.00 36 1011.6
20210618204157 96 159 7.0 13.0 0.00 0.00 0.00 38 1011.6
20210618203654 95 199 6.0 15.0 0.00 0.00 0.00 38 1011.8
20210618203150 95 110 5.0 14.0 0.00 0.00 0.00 39 1011.6
20210618202642 95 198 6.0 12.0 0.00 0.00 0.00 38 1011.6
20210618202142 96 259 0.0 13.0 0.00 0.00 0.00 37 1011.9
20210618201639 96 134 9.0 13.0 0.00 0.00 0.00 36 1011.9
20210618201130 95 87 7.0 33.0 0.00 0.00 0.00 38 1011.9
20210618200622 94 109 4.0 17.0 0.00 0.00 0.00 39 1011.7
20210618195932 94 80 13.0 25.0 0.00 0.00 0.00 39 1011.7
20210618195423 95 87 9.0 17.0 0.00 0.00 0.00 39 1011.9
20210618194920 96 157 0.0 14.0 0.00 0.00 0.00 39 1012.2
20210618194414 96 130 5.0 12.0 0.00 0.00 0.00 42 1011.9
20210618193912 96 221 0.0 10.0 0.00 0.00 0.00 41 1012.1
20210618193408 94 69 3.0 17.0 0.00 0.00 0.00 41 1012.1
20210618192903 96 196 8.0 11.0 0.00 0.00 0.00 40 1012.1
20210618192402 95 198 9.0 13.0 0.00 0.00 0.00 40 1012.0
20210618191856 95 42 6.0 13.0 0.00 0.00 0.00 40 1011.9
20210618191351 94 101 0.0 24.0 0.00 0.00 0.00 41 1012.3
20210618190848 94 209 0.0 7.0 0.00 0.00 0.00 43 1012.0
20210618190345 94 169 7.0 14.0 0.00 0.00 0.00 43 1012.4
20210618185841 94 126 3.0 13.0 0.00 0.00 0.00 40 1012.5
20210618185338 95 96 16.0 16.0 0.00 0.00 0.00 40 1012.6
20210618184831 94 81 2.0 13.0 0.00 0.00 0.00 43 1012.6
20210618184331 95 60 3.0 12.0 0.00 0.00 0.00 42 1012.7
20210618183829 94 74 5.0 13.0 0.00 0.00 0.00 43 1012.4
20210618183326 94 85 5.0 13.0 0.00 0.00 0.00 44 1012.9
20210618182820 94 215 3.0 13.0 0.00 0.00 0.00 46 1012.6
20210618182311 94 163 9.0 12.0 0.00 0.00 0.00 44 1012.9
20210618181807 93 112 8.0 12.0 0.00 0.00 0.00 43 1012.9
20210618181303 94 147 8.0 15.0 0.00 0.00 0.00 44 1012.8
20210618180800 94 81 0.0 21.0 0.00 0.00 0.00 44 1012.9
20210618180251 94 96 7.0 8.0 0.00 0.00 0.00 44 1013.1
20210618175743 92 173 5.0 15.0 0.00 0.00 0.00 47 1012.9
20210618175147 93 186 3.0 12.0 0.00 0.00 0.00 47 1013.1
20210618174538 93 188 9.0 20.0 0.00 0.00 0.00 47 1013.2
20210618174037 93 179 10.0 22.0 0.00 0.00 0.00 45 1013.2
20210618173537 93 187 7.0 15.0 0.00 0.00 0.00 46 1013.2
20210618173028 92 183 5.0 11.0 0.00 0.00 0.00 46 1013.2
20210618172526 93 189 10.0 16.0 0.00 0.00 0.00 47 1013.3
20210618172024 93 68 0.0 7.0 0.00 0.00 0.00 47 1013.4
20210618171522 92 154 10.0 18.0 0.00 0.00 0.00 46 1013.2
20210618171018 92 180 2.0 10.0 0.00 0.00 0.00 49 1013.2
20210618170510 92 138 12.0 13.0 0.00 0.00 0.00 49 1013.1
20210618170002 92 166 3.0 9.0 0.00 0.00 0.00 50 1013.3
20210618165456 92 164 7.0 9.0 0.00 0.00 0.00 48 1013.5
20210618164951 92 157 2.0 10.0 0.00 0.00 0.00 49 1013.4
20210618164449 92 114 6.0 13.0 0.00 0.00 0.00 49 1013.4
20210618163946 92 86 5.0 15.0 0.00 0.00 0.00 48 1013.5
20210618163443 91 199 8.0 22.0 0.00 0.00 0.00 51 1013.6
20210618162939 92 195 7.0 9.0 0.00 0.00 0.00 51 1013.5
20210618162434 91 68 5.0 15.0 0.00 0.00 0.00 50 1013.6
20210618161930 91 90 6.0 14.0 0.00 0.00 0.00 49 1013.4
20210618161425 91 209 14.0 14.0 0.00 0.00 0.00 53 1013.5
20210618160919 91 69 0.0 16.0 0.00 0.00 0.00 52 1013.6
20210618160417 90 188 6.0 18.0 0.00 0.00 0.00 52 1013.6
20210618155914 90 146 4.0 14.0 0.00 0.00 0.00 54 1013.7
20210618155411 91 159 12.0 12.0 0.00 0.00 0.00 53 1013.8
20210618154908 89 133 6.0 17.0 0.00 0.00 0.00 53 1013.7
20210618154404 89 162 7.0 17.0 0.00 0.00 0.00 55 1013.9
20210618153901 90 208 12.0 12.0 0.00 0.00 0.00 54 1013.5
20210618153357 89 100 6.0 18.0 0.00 0.00 0.00 56 1013.8
20210618152854 89 93 9.0 14.0 0.00 0.00 0.00 56 1013.6
20210618152350 88 234 0.0 13.0 0.00 0.00 0.00 57 1013.6
20210618151842 88 143 8.0 13.0 0.00 0.00 0.00 57 1013.8
20210618151337 88 162 6.0 11.0 0.00 0.00 0.00 59 1014.1
20210618150834 87 160 9.0 9.0 0.00 0.00 0.00 57 1014.1
20210618150324 87 119 9.0 17.0 0.00 0.00 0.00 58 1014.1
20210618145817 87 132 8.0 13.0 0.00 0.00 0.00 59 1013.7
20210618145316 87 124 4.0 12.0 0.00 0.00 0.00 60 1013.6
20210618144813 86 132 4.0 13.0 0.00 0.00 0.00 62 1014.1
20210618144311 86 122 0.0 13.0 0.00 0.00 0.00 61 1014.1
20210618143810 85 186 11.0 14.0 0.00 0.00 0.00 62 1014.1
20210618143301 85 161 8.0 10.0 0.00 0.00 0.00 63 1014.1
20210618142759 84 180 3.0 9.0 0.00 0.00 0.00 64 1014.1
20210618142251 84 125 7.0 13.0 0.00 0.00 0.00 63 1014.3
20210618141749 84 195 0.0 12.0 0.00 0.00 0.00 64 1013.9
20210618141247 84 151 3.0 10.0 0.00 0.00 0.00 64 1014.3
20210618140739 83 152 5.0 12.0 0.00 0.00 0.00 63 1014.1
20210618140238 83 102 8.0 12.0 0.00 0.00 0.00 65 1014.3
20210618135729 83 153 14.0 14.0 0.00 0.00 0.00 65 1014.4
20210618135229 82 76 0.0 13.0 0.00 0.00 0.00 66 1014.3
20210618134718 82 180 4.0 12.0 0.00 0.00 0.00 67 1014.3
20210618134215 82 100 8.0 10.0 0.00 0.00 0.00 66 1014.2
20210618133630 81 139 4.0 8.0 0.00 0.00 0.00 68 1014.2
20210618133115 81 173 0.0 12.0 0.00 0.00 0.00 69 1014.3
20210618132610 81 144 0.0 3.0 0.00 0.00 0.00 69 1014.1
20210618132039 80 156 5.0 12.0 0.00 0.00 0.00 70 1014.1
20210618131537 80 149 5.0 9.0 0.00 0.00 0.00 70 1014.3
20210618131015 79 166 6.0 10.0 0.00 0.00 0.00 73 1014.3
20210618130513 79 135 4.0 7.0 0.00 0.00 0.00 73 1014.5
20210618130005 78 177 0.0 8.0 0.00 0.00 0.00 74 1013.8
20210618125504 78 79 5.0 5.0 0.00 0.00 0.00 75 1014.4
20210618124959 78 103 3.0 9.0 0.00 0.00 0.00 76 1013.8
20210618124457 77 209 3.0 8.0 0.00 0.00 0.00 76 1013.9
20210618123952 77 75 2.0 8.0 0.00 0.00 0.00 77 1014.2
20210618123451 77 69 3.0 7.0 0.00 0.00 0.00 77 1014.1
20210618122947 77 160 0.0 3.0 0.00 0.00 0.00 78 1013.9
20210618122444 76 180 5.0 5.0 0.00 0.00 0.00 79 1013.8
20210618121937 76 165 0.0 6.0 0.00 0.00 0.00 79 1013.9
20210618121433 76 134 8.0 8.0 0.00 0.00 0.00 79 1014.1
20210618120931 76 194 5.0 7.0 0.00 0.00 0.00 79 1014.2
20210618120427 76 185 0.0 8.0 0.00 0.00 0.00 79 1013.8
20210618115926 76 114 2.0 7.0 0.00 0.00 0.00 79 1014.1
20210618115421 75 90 0.0 4.0 0.00 0.00 0.00 79 1014.2
20210618114915 75 124 4.0 5.0 0.00 0.00 0.00 79 1014.1
20210618114412 75 135 4.0 7.0 0.00 0.00 0.00 78 1013.9
20210618113900 75 117 4.0 6.0 0.00 0.00 0.00 79 1013.8
20210618113400 75 156 4.0 8.0 0.00 0.00 0.00 78 1013.7
20210618112852 75 189 4.0 7.0 0.00 0.00 0.00 79 1013.7
20210618112347 75 168 4.0 6.0 0.00 0.00 0.00 78 1013.9
20210618111844 75 116 5.0 9.0 0.00 0.00 0.00 78 1013.7
20210618111338 75 98 2.0 6.0 0.00 0.00 0.00 78 1013.6
20210618110834 76 90 5.0 10.0 0.00 0.00 0.00 78 1013.7
20210618110333 76 110 4.0 8.0 0.00 0.00 0.00 77 1013.5
20210618105830 76 159 0.0 9.0 0.00 0.00 0.00 77 1013.5
20210618105326 76 175 3.0 7.0 0.00 0.00 0.00 77 1013.5
20210618104822 76 139 4.0 7.0 0.00 0.00 0.00 77 1013.6
20210618104316 76 151 3.0 5.0 0.00 0.00 0.00 77 1013.5
20210618103752 76 157 2.0 9.0 0.00 0.00 0.00 76 1013.5
20210618103249 76 168 0.0 6.0 0.00 0.00 0.00 76 1013.6
20210618102742 76 147 5.0 7.0 0.00 0.00 0.00 76 1013.4
20210618102240 76 120 3.0 7.0 0.00 0.00 0.00 75 1013.5
20210618101737 76 97 0.0 6.0 0.00 0.00 0.00 75 1013.3
20210618101234 76 176 4.0 7.0 0.00 0.00 0.00 75 1013.5
20210618100730 76 164 3.0 8.0 0.00 0.00 0.00 75 1013.3
20210618100221 76 147 0.0 10.0 0.00 0.00 0.00 75 1013.4
20210618095720 77 108 9.0 10.0 0.00 0.00 0.00 74 1013.4
20210618095219 77 99 4.0 6.0 0.00 0.00 0.00 73 1013.3
20210618094717 77 101 7.0 9.0 0.00 0.00 0.00 72 1013.4
20210618094212 78 102 9.0 13.0 0.00 0.00 0.00 72 1013.2
20210618093711 78 90 2.0 10.0 0.00 0.00 0.00 72 1013.3
20210618093206 78 112 4.0 9.0 0.00 0.00 0.00 71 1013.4
20210618092653 78 215 3.0 10.0 0.00 0.00 0.00 70 1013.2
20210618092148 78 116 5.0 10.0 0.00 0.00 0.00 70 1013.5
20210618091643 78 197 6.0 11.0 0.00 0.00 0.00 70 1013.7
20210618091143 78 90 0.0 11.0 0.00 0.00 0.00 69 1013.6
20210618090643 78 147 9.0 11.0 0.00 0.00 0.00 69 1013.4
20210618090137 78 115 7.0 11.0 0.00 0.00 0.00 69 1013.5
20210618085632 78 202 6.0 9.0 0.00 0.00 0.00 69 1013.5
20210618085130 78 122 0.0 13.0 0.00 0.00 0.00 70 1013.6
20210618084629 77 110 0.0 17.0 0.00 0.00 0.00 70 1013.4
20210618084120 77 119 4.0 7.0 0.00 0.00 0.00 71 1013.5
20210618083545 77 90 3.0 4.0 0.00 0.00 0.00 71 1013.6
20210618083038 77 102 3.0 7.0 0.00 0.00 0.00 70 1013.6
20210618082533 77 90 0.0 3.0 0.00 0.00 0.00 70 1013.7
20210618082022 77 70 4.0 6.0 0.00 0.00 0.00 69 1013.5
20210618081520 78 132 4.0 6.0 0.00 0.00 0.00 69 1013.7
20210618081018 78 67 4.0 13.0 0.00 0.00 0.00 68 1013.5
20210618080514 78 85 8.0 9.0 0.00 0.00 0.00 67 1013.8
20210618075933 79 147 8.0 8.0 0.00 0.00 0.00 66 1013.6
20210618075426 79 90 8.0 9.0 0.00 0.00 0.00 66 1013.7
20210618074923 79 90 7.0 9.0 0.00 0.00 0.00 65 1013.7
20210618074420 79 130 5.0 8.0 0.00 0.00 0.00 65 1013.5
20210618073910 79 113 0.0 7.0 0.00 0.00 0.00 65 1013.7
20210618073401 79 203 0.0 6.0 0.00 0.00 0.00 65 1013.9
20210618072900 79 120 0.0 7.0 0.00 0.00 0.00 65 1013.7
20210618072356 79 90 5.0 8.0 0.00 0.00 0.00 65 1013.7
20210618071853 79 85 4.0 8.0 0.00 0.00 0.00 65 1013.8
20210618071347 79 94 5.0 8.0 0.00 0.00 0.00 65 1013.7
20210618070845 80 90 4.0 8.0 0.00 0.00 0.00 64 1013.7
20210618070343 80 94 6.0 10.0 0.00 0.00 0.00 64 1013.7
20210618065842 80 109 5.0 9.0 0.00 0.00 0.00 64 1013.6
20210618065340 80 90 3.0 8.0 0.00 0.00 0.00 65 1013.6
20210618064838 80 85 4.0 8.0 0.00 0.00 0.00 65 1013.8
20210618064334 79 90 4.0 7.0 0.00 0.00 0.00 66 1013.9
20210618063829 80 100 5.0 10.0 0.00 0.00 0.00 66 1014.2
20210618063329 79 97 6.0 9.0 0.00 0.00 0.00 66 1013.9
20210618062824 79 90 4.0 7.0 0.00 0.00 0.00 67 1014.2
20210618062315 79 90 5.0 7.0 0.00 0.00 0.00 67 1014.1
20210618061813 80 127 3.0 7.0 0.00 0.00 0.00 67 1014.2
20210618061303 80 180 0.0 6.0 0.00 0.00 0.00 66 1014.1
20210618060738 80 78 6.0 6.0 0.00 0.00 0.00 66 1014.1
20210618060235 80 172 0.0 7.0 0.00 0.00 0.00 66 1013.7
20210618055732 80 90 3.0 7.0 0.00 0.00 0.00 66 1014.2
20210618055225 80 71 4.0 7.0 0.00 0.00 0.00 67 1014.1
20210618054722 80 90 0.0 7.0 0.00 0.00 0.00 68 1014.3